Location: Asheville, NC
(35.6000°N, 82.5500°W)
Time: 06:08:50
(UTC-04:00)

Vanguard 2 - Pass Details

Date: 13 February 2018
Orbit: 552 x 2940 km, 32.9° (Epoch: 19 May)

Event Time Altitude Azimuth Distance (km) Brightness Sun altitude
Rises 00:04:34 0° 272° (W) 2,857 - -66.0°
Reaches altitude 10° 00:06:59 10° 265° (W) 1,856 - -66.2°
Maximum altitude 00:10:48 44° 192° (SSW) 761 - -66.5°
Drops below altitude 10° 00:14:47 10° 119° (ESE) 1,939 - -66.8°
Sets 00:17:22 0° 113° (ESE) 3,004 - -67.0°
